STARLINK-4411 (53202 NORAD) Tracking and Keplerian Element Data

This shows tracking and keplerian element data for the satellite.

Feedback or suggestion? Click here.




ElementValue
Catalog53202
NameSTARLINK-4411
Epoch Orbit1075
Epoch Day270.19430619
Epoch Year2022
RAAN330.4243
Inclination97.6559
Eccentricity0.0001431
Argument of Perigee92.4569
Mean Anonmoly267.6819
Mean Motion15.00463705
Decay Rate1.34E-06
L11 53202U 22084P 22270.19430619 .00000134 00000+0 15306-4 0 9990
L22 53202 97.6559 330.4243 0001431 92.4569 267.6819 15.00463705 10751

Live tracking and technical data element details for STARLINK-4411 (NORAD 53202). STARLINK-4411 can be tracked NOW for your location showing map with azimuth and elevation plus other details from your city location.

Track the satellite on the map from your city or location and see movement details for azimuth, elevation, latitude, longitude, range, height, and movement on the map or in text.







IsCatalogInMostPopularTable: catalog: 53202, numindb: 3
Update: records affected: 1



GetName: 53202 STARLINK-4411

Hit Count: updated at: Thu, 29 Sep 2022 10:26:22 GMT